Regional Weather Roundup
Issued by NWS

Home | Current Version | Previous Version | Graphics & Text | Print | Product List | Glossary On
Versions: 1 2 3 4 5 6 7 8 9 10 11 12 13 14 15 16 17 18 19 20 21 22 23 24 25 26 27 28 29 30 31 32 33 34 35 36 37 38 39 40 41 42 43 44 45 46 47 48 49 50
000
ASUS43 KMPX 290001
RWRMN
WEATHER ROUNDUP FOR MINNESOTA
NATIONAL WEATHER SERVICE TWIN CITIES/CHANHASSEN MN
600 PM CST FRI NOV 28 2014


NOTE: "FAIR" INDICATES FEW OR NO CLOUDS BELOW 12,000 FEET WITH NO
SIGNIFICANT WEATHER AND/OR OBSTRUCTIONS TO VISIBILITY. N/A MEANS
CURRENT SKY AND/OR WEATHER CONDITIONS ARE NOT AVAILABLE.

MNZ060>063-068>070-290100-
   Twin Cities Metro

CITY           SKY/WX    TMP DP  RH WIND       PRES   REMARKS
TWIN CITIES    MOCLDY    22  16  78 E10       29.82S WCI  11
6HR MIN TEMP:  18; 6HR MAX TEMP:  23; 6HR PCP:  0.01;

ST PAUL        MOCLDY    23  16  74 E8        29.85S WCI  14
CRYSTAL        PTCLDY    23  16  74 E7        29.81S WCI  15
BLAINE         MOCLDY    25  18  74 E7        29.82S WCI  17
LAKEVILLE      PTCLDY    21  18  86 E9        29.80F WCI  11
EDEN PRAIRIE   MOCLDY    23  16  74 E8        29.80S WCI  14
6HR MIN TEMP:  19; 6HR MAX TEMP:  23; 6HR PCP: TRACE;

SOUTH ST PAUL  PTCLDY    24  17  75 SE3       29.83S
LAKE ELMO      FAIR      23  18  80 E6        29.84S WCI  16
$$
MNZ001>005-007-008-013>017-022>024-027-028-290100-
   Northwest Minnesota

CITY           SKY/WX    TMP DP  RH WIND       PRES   REMARKS
BEMIDJI        CLOUDY    15   9  76 SE13      29.76F WCI   1
HALLOCK        CLOUDY    18  12  79 SE13      29.76F WCI   4
ROSEAU         LGT SNOW  18  10  73 E8        29.75F WCI   7
WARROAD        CLOUDY    16  10  79 E13G18    29.77F WCI   2
THIEF RVR FALL CLOUDY    16  10  79 SE14      29.74F WCI   1
CROOKSTON      CLOUDY    18  12  79 SE9       29.76F WCI   6
FOSSTON        CLOUDY    14   9  79 SE10      29.75S WCI   1
DETROIT LAKES  PTCLDY    18  12  79 SE10      29.74S WCI   6
MOORHEAD       MOCLDY    18  14  86 E6        29.75F WCI   9
PARK RAPIDS    CLOUDY    15   9  76 SE9       29.74F WCI   3
MAHNOMEN       CLOUDY    17  10  75 SE9       29.74S WCI   6
$$
MNZ006-009>011-018-025>026-290100-
   North Central Minnesota

CITY           SKY/WX    TMP DP  RH WIND       PRES   REMARKS
BAUDETTE       CLOUDY    15   8  73 E13       29.77F WCI   1
FLAG ISLAND    CLOUDY    12   7  79 E8        29.79F WCI   1
INTL FALLS     CLOUDY    15   8  73 E8        29.81F WCI   4
6HR MIN TEMP:  13; 6HR MAX TEMP:  16; 6HR PCP: TRACE;

WASKISH        CLOUDY    16  10  79 CALM      29.78F
BIG FORK       FLURRIES  16  10  79 E5        29.81F WCI   9
LONGVILLE      FLURRIES  16  10  79 SE6       29.80S WCI   7
GRAND RAPIDS   CLOUDY    14   9  79 SE7       29.80S WCI   4
CRANE LAKE     FLURRIES  16  10  79 CALM      29.87F
ORR            CLOUDY    16  10  79 CALM      29.80F
COOK           CLOUDY    18  12  79 E3        29.83S
WALKER         LGT SNOW  14  10  83 E7        29.78F WCI   4
$$
MNZ012-019>021-037-290100-
   Northeast Minnesota

CITY           SKY/WX    TMP DP  RH WIND       PRES   REMARKS
DULUTH         FLURRIES  16  11  80 SE8       29.83F WCI   5
6HR MIN TEMP:  12; 6HR MAX TEMP:  16; 6HR PCP: TRACE;

ELY            CLOUDY    18  12  79 E3        29.84S
HIBBING        CLOUDY    18  11  74 SE7       29.83S WCI   9
EVELETH        MIX PCPN  18  14  86 E6        29.83F WCI   9
DULUTH HARBOR  CLOUDY    19  12  73 CALM      29.90F
TWO HARBORS    CLOUDY    21  16  79 E3        29.86F
SILVER BAY     CLOUDY    21  18  86 SE5       29.87R WCI  15
GRAND MARAIS     N/A     25  15  66 E9G18     29.94R WCI  15
G MARAIS ARPRT FLURRIES  16  10  79 E5        29.86S WCI   9
$$
MNZ029>031-032-039>041-046>048-054>057-064-290100-
   West Central Minnesota

CITY           SKY/WX    TMP DP  RH WIND       PRES   REMARKS
FERGUS FALLS   PTCLDY    16   9  73 SE13      29.77R WCI   2
WHEATON        PTCLDY    16  12  86 SE12      29.77R WCI   3
MORRIS         MOCLDY    18  12  79 SE14      29.74F WCI   4
ALEXANDRIA     CLOUDY    17  12  80 E15       29.75F WCI   2
ELBOW LAKE     CLOUDY    17  13  82 SE12      29.74S WCI   4
WADENA         MOCLDY    16  10  79 E12       29.74F WCI   3
GLENWOOD       MOCLDY    18  14  86 E14       29.76F WCI   4
APPLETON       MOCLDY    18  14  86 SE12      29.76F WCI   5
BENSON         MOCLDY    18  14  86 SE7       29.78S WCI   8
ORTONVILLE     PTCLDY    16  12  86 SE10      29.75F WCI   3
MADISON        PTCLDY    21  18  86 E8        29.77F WCI  12
WILLMAR        FAIR      19  16  86 E8        29.79R WCI   9
$$
MNZ033>034-036-042>043-049>051-058-059-290100-
   Central Minnesota

CITY           SKY/WX    TMP DP  RH WIND       PRES   REMARKS
ST CLOUD       MOCLDY    20  13  74 E7        29.81R WCI  11
6HR MIN TEMP:  17; 6HR MAX TEMP:  21; 6HR PCP:  0.03;

SAUK CENTRE    CLOUDY    17  13  86 E9        29.78F WCI   5
PAYNESVILLE    PTCLDY    15  12  86 NE5       29.80R WCI   8
AITKIN         CLOUDY    19  10  68 E7        29.81S WCI  10
PINE RIVER     CLOUDY    16  10  79 SE10      29.83S WCI   3
BRAINERD       CLOUDY    15  10  80 SE7       29.81S WCI   5
STAPLES        CLOUDY    16  10  79 E8        29.78F WCI   5
LONG PRAIRIE   CLOUDY    16  12  86 E8        29.78S WCI   5
LITTLE FALLS   CLOUDY    18  12  79 E6        29.82R WCI   9
LITCHFIELD     PTCLDY    19  18  93 E7        29.80R WCI  10
BUFFALO        MOCLDY    21  16  79 E6        29.82R WCI  14
MAPLE LAKE     MOCLDY    21  17  84 E6        29.82R WCI  14
$$
MNZ037-044-045-052-053-290100-
   East Central Minnesota

CITY           SKY/WX    TMP DP  RH WIND       PRES   REMARKS
PRINCETON      FLURRIES  19  16  86 E7        29.82S WCI  10
MORA             N/A    N/A N/A N/A MISG        N/A
CAMBRIDGE      MOCLDY    21  12  68 E6        29.82F WCI  14
RUSH CITY      CLOUDY    19  13  79 E5        29.85F WCI  12
MOOSE LAKE     CLOUDY    18  12  79 CALM      29.83F
HINCKLEY       CLOUDY    19  14  79 CALM      29.85F
CLOQUET        CLOUDY    16  10  79 E5        29.83F WCI   9
MCGREGOR       CLOUDY    19  12  73 E6        29.83S WCI  11
$$
MNZ071>073-080-081-089-090-097-098-290100-
   Southwest Minnesota

CITY           SKY/WX    TMP DP  RH WIND       PRES   REMARKS
MONTEVIDEO     MOCLDY    18  16  93 SE7       29.79R WCI   8
GRANITE FALLS  CLOUDY    21  18  86 E5        29.79R WCI  15
CANBY          CLOUDY    21  19  93 E7        29.76R WCI  12
MARSHALL       PTCLDY    19  16  86 E9        29.75R WCI   9
REDWOOD FALLS  CLOUDY    22  17  81 E6        29.77S WCI  14
OLIVIA         MOCLDY    21  18  86 E8        29.78R WCI  12
PIPESTONE      CLEAR     28  25  86 SE7       29.68R WCI  21
WINDOM         MOCLDY    23  21  93 CALM      29.74R
WORTHINGTON    PTCLDY    21  19  93 E6        29.72R WCI  14
JACKSON        MOCLDY    23  21  93 SE8       29.73R WCI  14
TRACY          PTCLDY    21  19  91 E6        29.74R WCI  13
SLAYTON        PTCLDY    24  22  93 SE8       29.71R WCI  15
$$
MNZ065>067-074>077-082>085-091>093-290100-
   South Central Minnesota

CITY           SKY/WX    TMP DP  RH WIND       PRES   REMARKS
MANKATO        MOCLDY    23  16  74 SE10      29.78S WCI  12
NEW ULM        MOCLDY    21  19  93 E7        29.78R WCI  13
ST JAMES       MOCLDY    21  19  93 E3        29.78R
FAIRMONT       MOCLDY    25  19  80 SE12      29.74R WCI  14
GLENCOE        MOCLDY    23  20  89 E7        29.80R WCI  14
FARIBAULT      MOCLDY    25  19  80 E8        29.81R WCI  16
OWATONNA       MOCLDY    25  19  80 SE9       29.79R WCI  15
WASECA         MOCLDY    23  18  80 E9        29.80R WCI  13
ALBERT LEA     MOCLDY    25  21  86 SE9       29.76F WCI  15
$$
MNZ078>079-086>088-094>096-290100-
   Southeast Minnesota

CITY           SKY/WX    TMP DP  RH WIND       PRES   REMARKS
ROCHESTER      MOCLDY    22  18  85 SE10      29.82R WCI  11
6HR MIN TEMP:  20; 6HR MAX TEMP:  24;

RED WING       MOCLDY    25  18  74 SE13      29.83F WCI  13
STANTON        MOCLDY    25  19  78 SE6       29.81S WCI  18
DODGE CENTER   MOCLDY    23  21  93 SE10      29.79S WCI  12
WINONA         MOCLDY    28  23  80 SE3       29.88R
AUSTIN         MOCLDY    23  19  86 SE8       29.78F WCI  14
PRESTON        PTCLDY    23  19  85 SE9       29.82S WCI  13
$$
ABBREVIATIONS USED IN REMARKS
   TC - TEMPERATURES IN CELSIUS
  WCI - WIND CHILL INDEX
   HX - HEAT INDEX
  VSB - VISIBILITY
$$


USA.gov is the U.S. government's official web portal to all federal, state and local government web resources and services.